Location: Unspecified
(0.0000°N, 0.0000°E)
Time: 13:07:26
(UTC+00:00)

STARLINK-35348 - Pass Details

Date: 19 February 2026
Orbit: 474 x 476 km, 53.2° (Epoch: 14 March)

Event Time Altitude Azimuth Distance (km) Brightness Sun altitude
Rises 19:45:14 0° 201° (SSW) 2,521 6.4 -22.4°
Reaches altitude 10° 19:47:31 10° 192° (SSW) 1,640 5.3 -23.0°
Enters shadow 19:49:00 21° 178° (S) 1,128 4.3 -23.3°
